Wind_Speed
11 10 10 9 8 8 7 7 6 6 6 5 5 4 3 2 2 1 2 3 3 3 4 5 6 7 7 8 8 8 7 7 7 6 6 5 4 4 3 4 4 5 5
11 10 10 10 9 8 7 6 6 6 6 6 5 5 4 3 2 2 2 2 3 3 4 5 5 6 7 7 7 8 7 7 7 7 6 5 5 4 4 3 4 5 5
12 11 11 10 9 8 7 6 6 5 5 5 5 5 4 3 3 2 2 2 3 3 4 4 5 6 7 7 7 7 7 7 7 6 6 6 5 5 5 4 4 5 5
12 11 11 10 9 8 7 7 6 5 5 5 5 5 4 4 3 2 2 3 3 3 3 4 5 6 6 7 7 7 7 7 7 7 6 6 6 5 5 5 5 5 6
12 11 11 10 9 8 8 7 6 6 6 5 5 5 4 4 3 3 3 3 3 4 4 5 5 6 6 7 7 6 7 7 7 7 7 6 6 6 6 6 7 7 7
12 11 11 10 10 9 8 7 7 7 6 6 5 5 5 5 4 4 3 3 4 4 4 5 6 6 6 7 7 7 6 7 7 7 7 7 7 7 7 7 8 8 9
13 12 11 11 10 9 8 8 7 7 7 7 6 6 6 5 5 4 4 4 4 4 4 5 5 6 6 7 7 7 7 7 8 8 8 8 8 8 8 8 8 9 9
13 13 12 12 11 10 9 8 7 7 7 7 7 7 6 6 5 5 4 4 4 5 4 5 5 6 6 7 7 7 8 8 8 9 9 10 10 10 10 10 10 10 11
13 13 13 12 11 11 9 9 8 8 8 8 8 8 7 7 7 6 5 5 6 6 5 5 5 6 6 7 8 8 9 9 9 10 11 11 11 12 12 12 12 12 12
14 14 13 12 12 11 10 10 9 9 9 8 8 8 8 8 8 7 7 6 7 7 6 6 6 7 7 7 8 9 9 10 11 11 12 13 13 13 13 14 14 14 14
14 14 14 13 12 12 11 10 9 9 10 10 9 10 9 9 9 8 8 7 7 7 7 7 7 7 8 8 9 10 11 11 12 13 13 14 14 14 14 15 15 15 16
14 15 15 14 13 12 12 11 11 11 11 11 10 10 10 10 10 9 9 9 9 9 9 9 8 9 9 10 11 12 13 13 14 14 15 16 16 16 16 17 17 17 18
14 15 15 14 14 13 13 11 11 12 12 11 10 11 11 11 11 11 11 11 10 10 10 10 10 10 11 12 12 13 14 15 16 16 17 17 17 17 18 18 19 19 19
12 13 14 14 13 13 13 12 11 11 11 11 11 12 12 12 12 12 12 12 11 11 11 11 11 12 13 14 15 16 16 17 18 18 18 19 19 19 20 20 20 21 21
11 13 14 15 14 14 13 12 12 12 12 12 12 12 12 12 13 13 13 12 12 12 12 12 13 14 14 16 16 17 18 19 19 19 20 20 21 21 22 22 23 23 24
12 13 14 15 14 14 13 13 13 13 12 12 13 13 13 13 13 13 12 12 13 13 14 14 15 16 17 17 18 19 20 21 21 21 21 22 23 23 24 25 25 26 27
13 13 13 14 14 13 13 14 14 13 13 13 13 13 13 13 13 13 13 13 13 14 15 16 17 17 18 19 20 21 22 22 22 23 23 24 24 25 26 27 28 28 29
13 13 13 14 14 14 14 14 14 14 13 14 14 14 14 14 13 12 13 13 14 15 16 17 18 19 20 21 22 22 23 24 24 24 25 26 27 27 28 29 30 30 31
14 14 14 14 15 15 15 15 14 14 14 14 14 14 14 13 13 13 13 14 15 16 17 18 19 20 21 22 23 24 25 26 26 27 28 29 30 31 31 32 32 33 33
14 14 14 15 15 15 15 15 15 15 14 13 13 13 13 13 14 14 15 16 17 18 19 20 21 22 23 24 25 26 27 28 29 30 31 31 33 34 35 35 35 36 36
15 15 15 15 15 16 16 15 15 15 15 15 15 15 15 15 16 16 17 18 18 19 20 21 22 24 25 26 27 29 30 31 32 32 33 34 35 36 37 38 38 39 39
17 16 16 16 16 16 17 16 16 16 16 16 16 16 17 17 17 17 18 19 20 21 22 23 24 26 27 29 30 31 33 34 34 35 36 37 38 39 39 40 40 41 41
17 17 17 17 17 17 17 17 17 17 17 17 17 17 18 18 18 19 20 21 22 23 24 26 28 29 30 31 33 34 35 36 36 37 38 38 39 40 41 41 42 43 43
18 18 18 18 17 18 18 18 18 18 18 18 18 19 19 19 20 20 21 23 24 26 27 28 30 31 33 34 36 36 37 37 37 38 39 40 41 42 43 44 44 45 46
18 18 18 19 18 18 19 19 19 19 19 20 20 20 20 21 21 22 23 24 25 27 29 31 32 33 35 36 37 37 38 38 39 40 41 43 44 45 45 46 46 47 48
18 18 18 19 19 19 20 20 20 21 21 21 21 21 22 22 23 24 26 27 28 30 31 33 34 35 36 37 38 38 39 40 42 43 44 45 46 47 47 47 48 49 50
Wind_Direction
198 200 200 199 203 209 212 210 207 207 214 216 215 223 234 255 267 288 313 327 342 354 358 360 2 0 3 3 1 0 359 359 360 359 354 346 333 318 303 285 272 264 259
196 199 200 202 208 210 209 210 209 210 217 222 225 233 234 248 265 286 306 323 335 346 353 354 355 356 360 1 3 3 2 1 1 1 358 349 339 327 316 302 288 279 271
199 203 203 205 208 212 208 208 212 218 221 228 232 236 239 247 262 280 297 316 326 333 344 349 351 357 2 2 3 3 5 4 2 1 358 355 348 338 325 316 307 295 285
199 203 204 203 205 209 212 211 218 222 223 224 225 230 238 244 257 272 285 303 313 320 331 342 347 354 359 0 2 1 359 0 360 356 351 350 349 344 335 324 315 306 299
199 201 203 203 206 213 218 220 222 223 222 223 226 231 239 236 248 265 276 296 305 312 323 333 338 346 352 356 358 357 354 354 356 354 349 347 346 343 335 324 316 309 301
206 206 209 210 212 216 220 223 225 226 224 225 229 233 237 239 253 264 272 289 303 313 321 328 333 340 346 352 355 353 351 349 347 346 343 339 337 333 329 322 317 312 305
211 211 213 214 215 218 221 222 225 228 229 230 233 235 238 244 254 261 267 281 297 309 316 326 330 335 340 345 349 349 347 343 340 338 336 334 329 327 322 316 313 310 305
217 217 217 219 220 220 223 223 228 232 235 234 237 236 237 241 248 254 264 277 293 302 306 314 319 327 333 336 340 342 340 337 335 334 333 331 329 326 322 317 312 308 305
222 219 219 221 223 226 229 229 234 237 236 234 234 238 239 239 247 254 262 273 288 293 298 302 306 315 323 329 331 333 335 335 334 333 330 328 325 322 320 317 312 308 305
222 220 221 223 224 228 233 234 237 240 239 238 238 240 239 248 255 260 266 273 285 286 291 295 298 306 316 324 328 328 330 330 331 331 330 328 325 321 317 313 310 308 305
223 223 225 224 226 231 235 235 239 241 241 240 240 242 247 255 260 263 266 273 280 282 284 288 293 301 308 313 318 321 322 323 323 323 324 324 323 321 317 315 312 309 306
225 226 229 229 232 235 236 236 240 241 242 242 241 241 247 255 258 261 267 272 274 278 281 285 291 297 302 307 311 314 315 316 317 317 317 317 316 315 314 312 310 308 306
230 232 232 233 233 234 236 239 242 241 241 242 243 247 253 258 260 263 268 270 270 274 278 283 287 293 298 302 306 308 310 311 312 313 313 313 312 312 311 310 308 306 304
230 231 232 232 232 233 234 238 240 240 242 243 244 250 257 260 261 265 268 269 270 273 277 281 285 291 296 300 303 305 307 309 309 310 311 311 310 309 308 307 306 305 303
231 232 232 234 234 233 234 239 241 240 245 246 246 253 262 264 264 264 265 267 269 271 276 280 285 290 295 299 302 305 306 307 307 308 309 309 308 308 307 306 304 303 301
235 235 233 233 235 235 238 240 243 244 247 248 251 256 264 266 265 264 262 265 269 273 278 282 287 292 295 299 301 304 304 305 306 307 307 307 307 307 307 306 304 302 301
239 238 237 234 235 237 241 243 245 249 251 252 254 259 264 265 265 264 263 266 272 276 280 284 288 292 296 298 301 302 303 304 305 306 306 306 306 306 306 305 304 302 301
245 244 240 235 235 239 243 246 245 248 253 255 256 258 259 261 266 269 268 270 275 279 283 287 290 293 296 298 300 301 303 305 305 305 306 306 306 305 304 303 302 301 300
247 245 243 240 239 241 243 247 247 249 253 255 256 255 258 262 267 271 272 275 278 281 286 290 292 295 297 299 301 302 303 304 305 305 306 305 305 304 303 302 301 300 299
247 245 244 241 241 242 245 249 249 249 251 255 256 257 262 266 269 272 276 279 282 285 288 291 294 295 297 299 300 301 302 303 304 305 305 305 304 303 302 301 300 299 298
245 246 245 244 244 244 246 248 248 250 250 255 259 259 263 267 271 275 278 281 284 287 290 293 295 296 298 300 301 302 302 303 303 304 304 304 303 302 301 300 299 298 297
244 245 247 247 247 247 248 248 251 252 255 259 261 262 266 269 273 276 280 283 287 289 292 294 295 297 298 301 302 302 303 303 303 304 304 303 303 303 302 302 301 300 299
243 244 248 250 248 249 251 251 254 256 258 261 262 264 267 270 274 278 282 286 289 291 292 295 296 298 300 301 302 302 303 303 303 303 304 304 304 304 304 303 302 301 300
244 245 249 251 252 250 250 253 257 257 258 260 263 266 270 274 277 281 286 288 290 291 293 296 297 298 299 301 302 302 302 302 302 303 303 303 304 304 304 303 302 301 301
247 246 248 249 250 252 254 256 258 261 263 263 265 270 273 276 280 284 287 290 292 294 295 296 298 299 301 302 302 302 302 302 302 302 302 302 303 304 303 303 302 302 302
248 248 250 252 254 256 257 258 262 265 267 268 269 271 275 279 282 285 288 290 292 295 296 298 300 300 301 301 302 302 302 302 303 303 303 303 303 303 303 303 302 302 302
Height
5865 5867 5869 5870 5871 5872 5873 5874 5875 5876 5877 5878 5879 5879 5880 5880 5880 5880 5879 5879 5879 5878 5877 5876 5875 5874 5872 5871 5869 5867 5866 5864 5863 5862 5860 5859 5859 5858 5858 5858 5858 5859 5859
5864 5866 5868 5869 5870 5871 5873 5874 5875 5876 5876 5877 5878 5879 5879 5879 5879 5879 5879 5878 5878 5878 5877 5876 5875 5873 5872 5870 5869 5867 5866 5864 5863 5862 5860 5859 5859 5858 5858 5858 5858 5858 5858
5864 5865 5867 5868 5869 5870 5872 5873 5874 5875 5875 5876 5877 5878 5878 5878 5878 5878 5878 5878 5878 5877 5876 5875 5874 5873 5872 5870 5868 5867 5866 5864 5863 5862 5861 5859 5858 5858 5858 5857 5857 5857 5857
5862 5864 5865 5867 5868 5870 5871 5872 5873 5874 5874 5875 5876 5877 5877 5877 5878 5878 5877 5877 5877 5876 5875 5875 5874 5873 5871 5870 5868 5867 5866 5864 5863 5861 5860 5859 5858 5858 5857 5857 5857 5856 5856
5861 5863 5864 5866 5867 5869 5870 5871 5871 5872 5873 5874 5875 5875 5876 5876 5877 5877 5877 5876 5876 5875 5875 5874 5873 5872 5871 5870 5868 5867 5865 5864 5863 5861 5860 5859 5858 5858 5857 5857 5856 5856 5855
5860 5862 5863 5865 5866 5868 5868 5869 5870 5871 5872 5873 5874 5874 5875 5875 5876 5876 5875 5875 5875 5874 5874 5873 5872 5871 5870 5869 5868 5866 5865 5864 5863 5861 5860 5859 5858 5857 5856 5856 5855 5854 5854
5858 5860 5862 5863 5865 5866 5867 5868 5869 5870 5871 5871 5872 5873 5873 5874 5874 5874 5874 5874 5874 5873 5873 5872 5871 5870 5869 5868 5867 5866 5865 5864 5862 5861 5860 5859 5857 5856 5856 5855 5854 5853 5852
5857 5859 5860 5862 5863 5864 5865 5866 5867 5868 5869 5870 5871 5871 5872 5872 5873 5873 5873 5872 5872 5872 5871 5871 5870 5869 5868 5867 5866 5865 5864 5863 5862 5860 5859 5858 5857 5855 5854 5853 5852 5851 5851
5855 5857 5858 5860 5861 5863 5864 5864 5865 5866 5867 5868 5869 5869 5870 5871 5871 5871 5871 5871 5870 5870 5870 5869 5869 5868 5867 5866 5865 5864 5863 5862 5861 5859 5858 5857 5855 5854 5853 5851 5850 5850 5848
5853 5855 5856 5858 5859 5861 5862 5862 5863 5864 5865 5866 5867 5867 5868 5868 5869 5869 5869 5869 5868 5868 5868 5867 5867 5866 5866 5865 5864 5863 5861 5860 5859 5858 5856 5855 5853 5852 5851 5849 5848 5846 5845
5851 5853 5854 5856 5857 5858 5859 5860 5861 5862 5863 5864 5864 5865 5866 5866 5866 5866 5866 5866 5866 5866 5866 5865 5865 5864 5864 5863 5862 5861 5860 5859 5857 5856 5854 5853 5851 5850 5848 5846 5845 5843 5842
5849 5850 5852 5853 5855 5856 5857 5858 5859 5860 5861 5861 5862 5862 5863 5863 5864 5864 5864 5864 5863 5863 5863 5863 5863 5862 5861 5861 5860 5859 5857 5856 5855 5853 5851 5850 5848 5846 5845 5843 5841 5839 5838
5846 5848 5849 5851 5852 5853 5854 5855 5856 5857 5858 5858 5859 5860 5860 5861 5861 5861 5861 5861 5860 5860 5860 5860 5860 5859 5859 5858 5857 5856 5854 5853 5851 5850 5848 5846 5844 5842 5840 5839 5837 5835 5833
5844 5845 5846 5848 5849 5850 5851 5852 5853 5854 5855 5856 5856 5857 5857 5857 5857 5857 5857 5857 5857 5857 5857 5857 5857 5856 5856 5855 5853 5852 5851 5849 5847 5846 5844 5842 5840 5838 5836 5834 5832 5829 5827
5841 5843 5844 5845 5846 5847 5848 5849 5850 5851 5852 5852 5853 5853 5853 5853 5853 5853 5853 5854 5854 5854 5854 5854 5853 5853 5852 5851 5850 5848 5847 5845 5843 5841 5839 5837 5835 5833 5831 5828 5826 5823 5821
5839 5840 5841 5842 5843 5844 5845 5846 5847 5848 5848 5849 5850 5850 5849 5849 5849 5849 5849 5850 5850 5850 5850 5850 5849 5849 5848 5847 5845 5844 5842 5840 5838 5836 5834 5832 5830 5827 5824 5822 5819 5817 5814
5836 5837 5838 5839 5840 5841 5842 5843 5844 5845 5845 5846 5846 5846 5846 5846 5845 5845 5846 5847 5847 5847 5846 5846 5845 5845 5843 5842 5841 5839 5837 5835 5833 5831 5829 5826 5824 5821 5818 5815 5812 5809 5806
5833 5834 5834 5836 5837 5838 5839 5840 5841 5842 5842 5843 5843 5843 5843 5843 5843 5843 5843 5843 5843 5843 5843 5842 5841 5840 5839 5837 5836 5834 5832 5829 5827 5825 5822 5820 5817 5814 5811 5808 5805 5801 5798
5830 5830 5831 5832 5833 5835 5836 5837 5837 5838 5839 5839 5839 5840 5840 5840 5840 5840 5840 5840 5839 5839 5838 5838 5837 5835 5834 5832 5830 5828 5826 5823 5820 5818 5815 5812 5809 5806 5803 5800 5797 5793 5790
5826 5827 5828 5829 5830 5831 5832 5833 5834 5835 5835 5836 5836 5836 5836 5836 5836 5836 5836 5836 5835 5835 5834 5833 5831 5830 5828 5826 5824 5821 5819 5817 5814 5811 5808 5804 5801 5797 5793 5790 5787 5783 5780
5822 5823 5824 5825 5826 5827 5828 5829 5830 5831 5831 5832 5832 5832 5833 5833 5832 5832 5832 5831 5830 5830 5828 5827 5826 5824 5822 5819 5817 5814 5812 5809 5806 5803 5799 5796 5792 5788 5784 5780 5776 5772 5768
5818 5819 5820 5821 5822 5823 5824 5825 5826 5827 5827 5828 5828 5828 5828 5828 5828 5827 5827 5826 5825 5824 5823 5821 5819 5817 5815 5812 5809 5806 5803 5800 5797 5793 5790 5786 5782 5777 5773 5769 5765 5760 5756
5814 5815 5816 5817 5818 5819 5820 5821 5821 5822 5822 5823 5823 5824 5823 5823 5823 5822 5821 5820 5819 5818 5816 5815 5812 5810 5807 5804 5801 5798 5794 5791 5787 5783 5779 5775 5771 5766 5762 5757 5753 5748 5744
5809 5811 5812 5812 5813 5814 5815 5816 5816 5817 5818 5818 5818 5818 5818 5818 5817 5816 5815 5814 5813 5811 5809 5807 5805 5802 5799 5796 5792 5789 5785 5781 5777 5773 5769 5765 5760 5756 5751 5746 5741 5736 5731
5805 5806 5807 5808 5809 5809 5810 5811 5811 5812 5813 5813 5813 5813 5813 5812 5811 5810 5809 5808 5806 5804 5802 5799 5796 5793 5790 5786 5783 5779 5775 5771 5767 5763 5759 5754 5749 5744 5739 5734 5729 5723 5718
5800 5801 5802 5803 5804 5804 5805 5806 5806 5807 5807 5807 5807 5807 5807 5806 5805 5804 5802 5800 5798 5796 5793 5790 5787 5784 5780 5776 5772 5768 5764 5760 5756 5751 5747 5742 5737 5732 5726 5721 5716 5710 5704